Location: Czu?�w
(50.1404°N, 18.9919°E)
Time: 03:17:17
(UTC+00:00)

Cosmos 1953 Rocket - Pass Details

Date: 27 October 2020
Orbit: 605 x 634 km, 82.5° (Epoch: 27 November)

Event Time Altitude Azimuth Distance (km) Brightness Sun altitude
Rises 15:56:59 0° 354° (N) 2,901 6.9 -5.2°
Reaches altitude 10° 15:59:18 10° 1° (N) 1,995 6.0 -5.5°
Maximum altitude 16:03:33 45° 75° (ENE) 856 3.9 -6.2°
Drops below altitude 10° 16:07:48 10° 148° (SSE) 1,997 6.0 -6.9°
Sets 16:10:06 0° 155° (SSE) 2,903 6.9 -7.2°
